Location: Schommer Observatory
(40.5200°N, 74.4500°W)
Time: 23:16:58
(UTC-05:00)

OTV 5 (USA 277) - Pass Details

Date: 15 November 2017
Orbit: 404 x 417 km, 43.0° (Epoch: 07 September)

Event Time Altitude Azimuth Distance (km) Brightness Sun altitude
Exits shadow 04:24:50 22° 66° (ENE) 951 ? -26.5°
Drops below altitude 10° 04:26:08 10° 74° (ENE) 1,456 ? -26.3°
Sets 04:28:16 0° 79° (E) 2,316 ? -25.9°
